Home > Time Zones > World Clock > Weather > Oman > Muscat > Past weeks

Flag for Oman Weather past 2 weeks in Muscat, Oman

Now
90 °F

Passing clouds.


Feels Like: 88 °F
Forecast: 85 / 91 °F
Wind: 6 mph from South

Location: International Airport

Current Time: Oct 1, 2014 at 2:24:26 AM

Latest Report: Oct 1, 2014 at 1:50 AM


Visibility: N/A

Pressure: 29.77 "Hg

Humidity: 33%

Dew point: 57 °F

Location of MuscatLocation

Historic Weather in Muscat — Graph

°F

Muscat temperature yesterday

Maximum temperature yesterday: 97 °F (at 12:50 PM)
Minimum temperature yesterday: 81 °F (at 4:50 AM)
Average temperature yesterday: 90 °F

Past Weeks' High & Low Weather Summary

 TemperatureHumidityPressure
High97 °F (Sep 30, 12:50 PM)94% (Sep 16, 4:50 AM)29.92 "Hg (Sep 16, 4:50 AM)
Low81 °F (Sep 17, 5:50 AM)24% (Sep 30, 11:50 PM)29.59 "Hg (Sep 16, 12:50 AM)
Average86 °F74%29.74 "Hg
* Reported Sep 16 12:50 AM — Oct 1 12:50 AM, Muscat, Weather by CustomWeather, © 2014

Note: Actual official high and low records may vary slightly from our data, if they occured in-between our weather recording intervals... More about our weather records

Advertising

Muscat weather history for previous 24 hours

 ConditionsComfort  
Time TempWeatherWind HumidityBarometerVisibility
12:50 AM
Oct 1
90 °FClear.5 mph31%29.77 "Hg10 mi
11:50 PM
Sep 30
93 °FPassing clouds.7 mph24%29.77 "HgN/A
10:50 PM91 °FPassing clouds.5 mph28%29.80 "HgN/A
9:50 PM90 °FClear.No wind31%29.83 "Hg10 mi
8:50 PM91 °FClear.2 mph28%29.83 "Hg10 mi
7:50 PM93 °FClear.3 mph28%29.80 "Hg10 mi
6:50 PM93 °FClear.3 mph32%29.80 "Hg10 mi
5:50 PM91 °FSunny.No wind38%29.80 "Hg10 mi
4:50 PM91 °FSunny.1 mph49%29.77 "Hg10 mi
3:50 PM91 °FPassing clouds.6 mph44%29.77 "HgN/A
2:50 PM93 °FPassing clouds.8 mph36%29.77 "HgN/A
1:50 PM97 °FPassing clouds.8 mph32%29.80 "HgN/A
12:50 PM97 °FPassing clouds.7 mph28%29.80 "HgN/A
11:50 AM95 °FSunny.9 mph30%29.83 "Hg10 mi
10:50 AM95 °FSunny.7 mph36%29.86 "Hg10 mi
9:50 AM95 °FSunny.2 mph36%29.86 "Hg10 mi
8:50 AM93 °FSunny.2 mph44%29.89 "Hg10 mi
7:50 AM86 °FSunny.2 mph75%29.86 "Hg10 mi
6:50 AM84 °FSunny.2 mph74%29.86 "Hg10 mi
5:50 AM82 °FClear.2 mph74%29.83 "Hg10 mi
4:50 AM81 °FClear.No wind74%29.80 "Hg10 mi
3:50 AM82 °FPassing clouds.3 mph74%29.80 "HgN/A
2:50 AM82 °FClear.1 mph74%29.77 "Hg10 mi
Weather by CustomWeather, © 2014

See weather overviewHow to use our weather pages